Time,TemperatureF,DewpointF,PressureIn,WindDirection,WindDirectionDegrees,WindSpeedMPH,WindSpeedGustMPH,Humidity,HourlyPrecipIn,Conditions,Clouds,dailyrainin,SolarRadiationWatts/m^2,SoftwareType,DateUTC
2013-03-18 00:03:00,23.0,15.0,-100.00,ENE,61,0.0,2.0,70,0.00,,,0.11,0.000000,,2013-03-18 04:03:00,
2013-03-18 00:33:00,22.0,13.0,-100.00,East,91,2.0,5.0,69,0.00,,,0.11,0.000000,,2013-03-18 04:33:00,
2013-03-18 00:42:00,22.0,13.0,-100.00,East,91,2.0,5.0,69,0.00,,,0.11,0.000000,,2013-03-18 04:42:00,
2013-03-18 00:53:00,22.0,13.0,-100.00,East,91,2.0,5.0,69,0.00,,,0.11,0.000000,,2013-03-18 04:53:00,
2013-03-18 01:03:00,22.0,13.0,-100.00,East,91,2.0,5.0,69,0.00,,,0.11,0.000000,,2013-03-18 05:03:00,
2013-03-18 01:32:00,19.0,11.0,-100.00,ESE,114,2.0,4.0,72,0.00,,,0.11,0.000000,,2013-03-18 05:32:00,
2013-03-18 01:43:00,19.0,11.0,-100.00,ESE,114,2.0,4.0,72,0.00,,,0.11,0.000000,,2013-03-18 05:43:00,
2013-03-18 01:52:00,19.0,11.0,-100.00,ESE,114,2.0,4.0,72,0.00,,,0.11,0.000000,,2013-03-18 05:52:00,
2013-03-18 02:02:00,19.0,11.0,-100.00,ESE,114,2.0,4.0,72,0.00,,,0.11,0.000000,,2013-03-18 06:02:00,
2013-03-18 03:33:00,19.0,13.0,-100.00,ESE,109,3.0,6.0,76,-99.99,,,0.11,0.000000,,2013-03-18 07:33:00,
2013-03-18 03:43:00,19.0,13.0,-100.00,ESE,109,3.0,6.0,76,-99.99,,,0.11,0.000000,,2013-03-18 07:43:00,
2013-03-18 03:53:00,19.0,13.0,-100.00,ESE,109,3.0,6.0,76,-99.99,,,0.11,0.000000,,2013-03-18 07:53:00,
2013-03-18 04:02:00,19.0,13.0,-100.00,ESE,109,3.0,6.0,76,-99.99,,,0.11,0.000000,,2013-03-18 08:02:00,
2013-03-18 04:32:00,19.0,13.0,-100.00,ESE,113,3.0,5.0,76,0.00,,,0.11,0.000000,,2013-03-18 08:32:00,
2013-03-18 04:43:00,19.0,13.0,-100.00,ESE,113,3.0,5.0,76,0.00,,,0.11,0.000000,,2013-03-18 08:43:00,
2013-03-18 04:53:00,19.0,13.0,-100.00,ESE,113,3.0,5.0,76,0.00,,,0.11,0.000000,,2013-03-18 08:53:00,
2013-03-18 05:02:00,19.0,13.0,-100.00,ESE,113,3.0,5.0,76,0.00,,,0.11,0.000000,,2013-03-18 09:02:00,
2013-03-18 05:33:00,20.0,12.0,-100.00,ESE,113,4.0,9.0,70,0.00,,,0.11,0.000000,,2013-03-18 09:33:00,
2013-03-18 05:43:00,20.0,12.0,-100.00,ESE,113,4.0,9.0,70,0.00,,,0.11,0.000000,,2013-03-18 09:43:00,
2013-03-18 05:53:00,20.0,12.0,-100.00,ESE,113,4.0,9.0,70,0.00,,,0.11,0.000000,,2013-03-18 09:53:00,
2013-03-18 06:04:00,20.0,12.0,-100.00,ESE,113,4.0,9.0,70,0.00,,,0.11,0.000000,,2013-03-18 10:04:00,
2013-03-18 06:33:00,20.0,12.0,-100.00,SE,124,4.0,9.0,72,0.00,,,0.11,0.000000,,2013-03-18 10:33:00,
2013-03-18 06:42:00,20.0,12.0,-100.00,SE,124,4.0,9.0,72,0.00,,,0.11,0.000000,,2013-03-18 10:42:00,
2013-03-18 06:53:00,20.0,12.0,-100.00,SE,124,4.0,9.0,72,0.00,,,0.11,0.000000,,2013-03-18 10:53:00,
2013-03-18 07:03:00,20.0,12.0,-100.00,SE,124,4.0,9.0,72,0.00,,,0.11,0.000000,,2013-03-18 11:03:00,
2013-03-18 07:32:00,20.0,11.0,-100.00,ESE,123,4.0,10.0,69,0.00,,,0.11,0.000000,,2013-03-18 11:32:00,
2013-03-18 07:43:00,20.0,11.0,-100.00,ESE,123,4.0,10.0,69,0.00,,,0.11,0.000000,,2013-03-18 11:43:00,
2013-03-18 07:53:00,20.0,11.0,-100.00,ESE,123,4.0,10.0,69,0.00,,,0.11,0.000000,,2013-03-18 11:53:00,
2013-03-18 08:03:00,20.0,11.0,-100.00,ESE,123,4.0,10.0,69,0.00,,,0.11,0.000000,,2013-03-18 12:03:00,
2013-03-18 08:33:00,21.0,12.0,-100.00,ESE,120,4.0,10.0,67,0.00,,,0.11,6.000000,,2013-03-18 12:33:00,
2013-03-18 08:43:00,21.0,12.0,-100.00,ESE,120,4.0,10.0,67,0.00,,,0.11,6.000000,,2013-03-18 12:43:00,
2013-03-18 08:52:00,21.0,12.0,-100.00,ESE,120,4.0,10.0,67,0.00,,,0.11,6.000000,,2013-03-18 12:52:00,
2013-03-18 09:03:00,21.0,12.0,-100.00,ESE,120,4.0,10.0,67,0.00,,,0.11,6.000000,,2013-03-18 13:03:00,
2013-03-18 09:33:00,23.0,12.0,-100.00,SE,135,6.0,11.0,63,0.00,,,0.11,38.000000,,2013-03-18 13:33:00,
2013-03-18 09:42:00,23.0,12.0,-100.00,SE,135,6.0,11.0,63,0.00,,,0.11,38.000000,,2013-03-18 13:42:00,
2013-03-18 09:52:00,23.0,12.0,-100.00,SE,135,6.0,11.0,63,0.00,,,0.11,38.000000,,2013-03-18 13:52:00,
2013-03-18 10:02:00,23.0,12.0,-100.00,SE,135,6.0,11.0,63,0.00,,,0.11,38.000000,,2013-03-18 14:02:00,
2013-03-18 10:32:00,27.0,14.0,-100.00,SE,135,8.0,15.0,57,0.00,,,0.11,80.000000,,2013-03-18 14:32:00,
2013-03-18 10:42:00,27.0,14.0,-100.00,SE,135,8.0,15.0,57,0.00,,,0.11,80.000000,,2013-03-18 14:42:00,
2013-03-18 10:52:00,27.0,14.0,-100.00,SE,135,8.0,15.0,57,0.00,,,0.11,80.000000,,2013-03-18 14:52:00,
2013-03-18 11:02:00,27.0,14.0,-100.00,SE,135,8.0,15.0,57,0.00,,,0.11,80.000000,,2013-03-18 15:02:00,
2013-03-18 11:33:00,26.0,13.0,-100.00,SE,142,7.0,14.0,57,0.00,,,0.10,76.000000,,2013-03-18 15:33:00,
2013-03-18 11:43:00,26.0,13.0,-100.00,SE,142,7.0,14.0,57,0.00,,,0.10,76.000000,,2013-03-18 15:43:00,
2013-03-18 11:52:00,26.0,13.0,-100.00,SE,142,7.0,14.0,57,0.00,,,0.10,76.000000,,2013-03-18 15:52:00,
2013-03-18 12:03:00,26.0,13.0,-100.00,SE,142,7.0,14.0,57,0.00,,,0.10,76.000000,,2013-03-18 16:03:00,
2013-03-18 12:33:00,24.0,18.0,-100.00,SE,131,6.0,14.0,77,0.00,,,0.07,48.000000,,2013-03-18 16:33:00,
2013-03-18 12:42:00,24.0,18.0,-100.00,SE,131,6.0,14.0,77,0.00,,,0.07,48.000000,,2013-03-18 16:42:00,
2013-03-18 12:53:00,24.0,18.0,-100.00,SE,131,6.0,14.0,77,0.00,,,0.07,48.000000,,2013-03-18 16:53:00,
2013-03-18 13:03:00,24.0,18.0,-100.00,SE,131,6.0,14.0,77,0.00,,,0.07,48.000000,,2013-03-18 17:03:00,
2013-03-18 13:33:00,25.0,19.0,-100.00,SE,127,7.0,14.0,77,0.00,,,0.06,40.000000,,2013-03-18 17:33:00,
2013-03-18 13:43:00,25.0,19.0,-100.00,SE,127,7.0,14.0,77,0.00,,,0.06,40.000000,,2013-03-18 17:43:00,
2013-03-18 13:52:00,25.0,19.0,-100.00,SE,127,7.0,14.0,77,0.00,,,0.06,40.000000,,2013-03-18 17:52:00,
2013-03-18 14:02:00,25.0,19.0,-100.00,SE,127,7.0,14.0,77,0.00,,,0.06,40.000000,,2013-03-18 18:02:00,
2013-03-18 14:32:00,26.0,18.0,-100.00,SE,137,9.0,15.0,72,0.00,,,0.05,41.000000,,2013-03-18 18:32:00,
2013-03-18 14:42:00,26.0,18.0,-100.00,SE,137,9.0,15.0,72,0.00,,,0.05,41.000000,,2013-03-18 18:42:00,
2013-03-18 14:52:00,26.0,18.0,-100.00,SE,137,9.0,15.0,72,0.00,,,0.05,41.000000,,2013-03-18 18:52:00,
2013-03-18 15:03:00,26.0,18.0,-100.00,SE,137,9.0,15.0,72,0.00,,,0.05,41.000000,,2013-03-18 19:03:00,
2013-03-18 15:33:00,23.0,17.0,-100.00,SE,132,9.0,18.0,77,0.00,,,0.03,34.000000,,2013-03-18 19:33:00,
2013-03-18 15:42:00,23.0,17.0,-100.00,SE,132,9.0,18.0,77,0.00,,,0.03,34.000000,,2013-03-18 19:42:00,
2013-03-18 15:52:00,23.0,17.0,-100.00,SE,132,9.0,18.0,77,0.00,,,0.03,34.000000,,2013-03-18 19:52:00,
2013-03-18 16:03:00,23.0,17.0,-100.00,SE,132,9.0,18.0,77,0.00,,,0.03,34.000000,,2013-03-18 20:03:00,
2013-03-18 16:33:00,24.0,22.0,-100.00,SE,130,8.0,16.0,92,0.00,,,0.02,29.000000,,2013-03-18 20:33:00,
2013-03-18 16:43:00,24.0,22.0,-100.00,SE,130,8.0,16.0,92,0.00,,,0.02,29.000000,,2013-03-18 20:43:00,
2013-03-18 16:53:00,24.0,22.0,-100.00,SE,130,8.0,16.0,92,0.00,,,0.02,29.000000,,2013-03-18 20:53:00,
2013-03-18 17:02:00,24.0,22.0,-100.00,SE,130,8.0,16.0,92,0.00,,,0.02,29.000000,,2013-03-18 21:02:00,
2013-03-18 17:33:00,24.0,22.0,-100.00,SE,139,6.0,14.0,92,0.00,,,0.01,59.000000,,2013-03-18 21:33:00,
2013-03-18 17:43:00,24.0,22.0,-100.00,SE,139,6.0,14.0,92,0.00,,,0.01,59.000000,,2013-03-18 21:43:00,
2013-03-18 17:53:00,24.0,22.0,-100.00,SE,139,6.0,14.0,92,0.00,,,0.01,59.000000,,2013-03-18 21:53:00,
2013-03-18 18:03:00,24.0,22.0,-100.00,SE,139,6.0,14.0,92,0.00,,,0.01,59.000000,,2013-03-18 22:03:00,
2013-03-18 18:33:00,25.0,23.0,-100.00,SE,134,6.0,12.0,93,0.00,,,0.00,20.000000,,2013-03-18 22:33:00,
2013-03-18 18:42:00,25.0,23.0,-100.00,SE,134,6.0,12.0,93,0.00,,,0.00,20.000000,,2013-03-18 22:42:00,
2013-03-18 18:53:00,25.0,23.0,-100.00,SE,134,6.0,12.0,93,0.00,,,0.00,20.000000,,2013-03-18 22:53:00,
2013-03-18 19:03:00,25.0,23.0,-100.00,SE,134,6.0,12.0,93,0.00,,,0.00,20.000000,,2013-03-18 23:03:00,
2013-03-18 19:33:00,25.0,24.0,-100.00,SE,130,7.0,12.0,94,0.00,,,0.00,17.000000,,2013-03-18 23:33:00,
2013-03-18 19:43:00,25.0,24.0,-100.00,SE,130,7.0,12.0,94,0.00,,,0.00,17.000000,,2013-03-18 23:43:00,
2013-03-18 19:53:00,25.0,24.0,-100.00,SE,130,7.0,12.0,94,0.00,,,0.00,17.000000,,2013-03-18 23:53:00,
2013-03-18 20:03:00,25.0,24.0,-100.00,SE,130,7.0,12.0,94,0.00,,,0.00,17.000000,,2013-03-19 00:03:00,
2013-03-18 21:33:00,26.0,25.0,-100.00,SE,130,7.0,15.0,96,-99.99,,,0.00,0.000000,,2013-03-19 01:33:00,
2013-03-18 21:43:00,26.0,25.0,-100.00,SE,130,7.0,15.0,96,-99.99,,,0.00,0.000000,,2013-03-19 01:43:00,
2013-03-18 21:53:00,26.0,25.0,-100.00,SE,130,7.0,15.0,96,-99.99,,,0.00,0.000000,,2013-03-19 01:53:00,
2013-03-18 22:03:00,26.0,25.0,-100.00,SE,130,7.0,15.0,96,-99.99,,,0.00,0.000000,,2013-03-19 02:03:00,
2013-03-18 22:33:00,27.0,26.0,-100.00,SE,135,7.0,15.0,96,0.00,,,0.00,0.000000,,2013-03-19 02:33:00,
2013-03-18 22:43:00,27.0,26.0,-100.00,SE,135,7.0,15.0,96,0.00,,,0.00,0.000000,,2013-03-19 02:43:00,
2013-03-18 22:53:00,27.0,26.0,-100.00,SE,135,7.0,15.0,96,0.00,,,0.00,0.000000,,2013-03-19 02:53:00,
2013-03-18 23:02:00,27.0,26.0,-100.00,SE,135,7.0,15.0,96,0.00,,,0.00,0.000000,,2013-03-19 03:02:00,
2013-03-18 23:33:00,27.0,26.0,-100.00,SE,132,7.0,14.0,96,0.00,,,0.00,0.000000,,2013-03-19 03:33:00,
2013-03-18 23:43:00,27.0,26.0,-100.00,SE,132,7.0,14.0,96,0.00,,,0.00,0.000000,,2013-03-19 03:43:00,
2013-03-18 23:54:00,27.0,26.0,-100.00,SE,132,7.0,14.0,96,0.00,,,0.00,0.000000,,2013-03-19 03:54:00,